Location: Observatoire
(46.1952°N, 5.3391°E)
Time: 02:07:13
(UTC+01:00)

Tiros 1 despin weight - Pass Details

Date: 22 February 2026
Orbit: 556 x 593 km, 48.2° (Epoch: 9 March)

Event Time Altitude Azimuth Distance (km) Brightness Sun altitude
Rises 13:16:00 0° 209° (SSW) 2,748 ? 33.5°
Reaches altitude 10° 13:18:35 10° 195° (SSW) 1,849 ? 33.4°
Maximum altitude 13:21:57 23° 142° (SE) 1,197 ? 33.3°
Drops below altitude 10° 13:25:19 10° 89° (E) 1,843 ? 33.2°
Sets 13:27:53 0° 75° (ENE) 2,737 ? 33.2°
